"Pseudo-MPEC" for A10Bgf6

Created 2021 Sep 15 11:07:03 UT using Find_Orb

Click here for an explanation of pseudo-MPECs

 
 Astrometry: 
     A10Bgf6  C2021 09 14.44873100 03 50.93 -27 19 34.6    ~9EEq 18.83oVNEOCPT08
     A10Bgf6  C2021 09 14.45199200 03 49.74 -27 18 09.5    ~9EEq 17.75oVNEOCPT08
     A10Bgf6  C2021 09 14.48603800 03 37.59 -27 03 23.3    ~9EEq 18.93oVNEOCPT08
     A10Bgf6  C2021 09 14.51411600 03 27.88 -26 51 18.5    ~9EEq 18.29oVNEOCPT08
     A10Bgf6 pC2021 09 14,ZD:8SO/5N=b$=#5*,U^le^AstrometryZEcyms_'=T@K)):WF#5595
     A10Bgf6 pC2021 09 14dZ$Zd0iHV.`kSredacted;J--qZlSRFs#)=;@P@/sC@PQ'A++(lV595
     A10Bgf6 KC2021 09 14c8/;9(B^5];Vh[0w6OpYIF1PAp5Jbl3U(9^6v5s7kaclickMV^c_595
     A10Bgf6 hC2021 09 14/B./-9Q#(!?Nh@*J3BJI_w0+^7;w,vbo*UF-^!M2CGm4^q8W15AML01
     A10Bgf6 hC2021 09 14X1$Xe0.MZhere8]Fu\M-%t$MbxM/5n%=6A8!,G)f_fF_a(2Hb`5IL01
     A10Bgf6 hC2021 09 14Cg#Jw9?0y9Q8:]_CIxcp^JRJM:1S)4vq7!n*tp:scl1X)JU-I?WaL01
     A10Bgf6 IC2021 09 14C/1pJvJS0$H!r,uCGI`mZv_N].m:IjJZatWe'ge,iAXPpUw?DT4tL01
     A10Bgf6 IC2021 09 149bX!/rJB*ap;LR]k8fJV]-VvQ00Is^J(0N\-YCWNI/1o!8[Lnr,VL01
     A10Bgf6 KC2021 09 14O(a98gce%gH6*CO(T#+di?'6kObw+7YGQforr4n7:[9*QD'[^1yMG02
     A10Bgf6 KC2021 09 14f?.0]dbCVAjamXU_LjxVvv7Vs:hrATkO0gtd*9.k-fl9EDIuAaQwG02
     A10Bgf6 KC2021 09 144Fe`gsRq)explanation.^XLHbeV.Lvbria=m\^.45BZ!\!t4r$BG02
     A10Bgf6 |C2021 09 15V\HXx4h,:?I3.0P!mh/[#+o$hpSVC1yyG!2EiT,*sU=(?m]25mG8807
     A10Bgf6 |C2021 09 15Rq@g$Q05Pc\QO[A*g%#vB_iC($jPpBFA=gEnwZx;p)j,$tM)RJK7807
     A10Bgf6 |C2021 09 15@n4HL$Rw!S@dfrxd3ImWUL,(U^,[OLOdOVB[SC4qa/[''4kn]9%8807

Station data:
(595) Farra d'Isonzo  (N45.915734 E13.525780)  Italy.  Observers L.
   Bittesini, F. Fabris, E. Pettarin, F. Piani. Measurer E. Pettarin. 0.30-m
   f/4.5 reflector + CCD.
(807) Cerro Tololo Observatory, La Serena  (S30.169136 W70.805900)  Chile.
(G02) KYSUCE Observatory, Kysucke Nove Mesto  (N49.307316 E18.765390).
(L01) Višnjan Observatory, Tičan  (N45.290900 E13.749300)  Croatia.
   Observers K. Korlević, E. Pettarin. Measurer E. Pettarin. 1.0-m f/2.9
   reflector + CCD.
(T08) ATLAS-MLO, Mauna Loa  (N19.536152 W155.576050)  US/Hawaii.  Observers
   L. Denneau, A. Heinze, H. Weiland, J. Tonry, H. Flewelling, A.
   Fitzsimmons, D. Young, B. Stalder. Measurers L. Denneau, A. Heinze, J.
   Tonry. 0.5-m f/2.0 Schmidt + CCD.

Orbital elements:  A10Bgf6
   Perihelion 2021 Jul 17.176709 +/- 0.027836 TT =  4:14:27 (JD 2459412.676709)
Epoch 2021 Sep 15.0 TT = JDT 2459472.5   Earth MOID: 0.0035   Ma: 0.0760
M  45.60358931 +/- 0.0496449        (J2000 ecliptic)          AutoNEOCP
n   0.76230492 +/- 0.000479137      Peri.  218.76172 +/- 0.9588660
a   1.18681646 +/- 0.000497295      Node    60.63327 +/- 0.9338176
e   0.2649537 +/- 0.000365874       Incl.    0.41289 +/- 0.0034138
P   1.29/472.24d           H 26.6   G  0.15   U  7.6  
q 0.87236504 +/- 0.000108069    Q 1.50126789 +/- 0.00105792
From 18 observations 2021 Sept. 14-15 (17.9 hr); mean residual 0".51
Residuals in arcseconds: 
210914 T08  .40-  .18-    210914 595  .35+  .25+    210914 G02  .44+  .47-    
210914 T08  .41-  .07-    210914 L01  .55+  .14+    210914 G02  .93+  .53-    
210914 T08  .50+  1.0+    210914 L01  .21+  .11-    210914 G02  .88+  .42-    
210914 T08  .54-  .90-    210914 L01  .23+  .37+    210915 807  .48-  .35+    
210914 595  .82-  .17+    210914 L01  .22-  .04+    210915 807  .38-  .05-    
210914 595  .59+  .49+    210914 L01  .48-  .26+    210915 807  1.0-  .21-    

Ephemerides (geocentric):
Date (UTC) HH   RA              Dec         delta   r     elong  mag " sig PA
---- -- -- --  -------------   -----------  ------ ------ -----  --- ---- ---
2021 09 15 11  00 02 16.507   -21 23 30.80  .02027 1.0247 160.2 19.2 1.57   7
2021 09 15 12  00 02 13.595   -21 12 06.63  .02044 1.0248 160.4 19.2 1.83   6
2021 09 15 13  00 02 10.738   -21 00 53.87  .02061 1.0250 160.6 19.2 2.09   5
2021 09 15 14  00 02 07.936   -20 49 52.24  .02079 1.0252 160.7 19.2 2.36   4
2021 09 15 15  00 02 05.185   -20 39 01.49  .02096 1.0254 160.9 19.2 2.64   4
2021 09 15 16  00 02 02.486   -20 28 21.36  .02113 1.0255 161.1 19.2 2.93   3
2021 09 15 17  00 01 59.836   -20 17 51.61  .02131 1.0257 161.2 19.3 3.22   3
2021 09 15 18  00 01 57.234   -20 07 31.99  .02148 1.0259 161.4 19.3 3.51   3
2021 09 15 19  00 01 54.679   -19 57 22.27  .02166 1.0261 161.6 19.3 3.81   2
2021 09 15 20  00 01 52.170   -19 47 22.22  .02183 1.0262 161.7 19.3 4.11   2
2021 09 15 21  00 01 49.705   -19 37 31.62  .02201 1.0264 161.9 19.3 4.42   2
2021 09 15 22  00 01 47.283   -19 27 50.27  .02218 1.0266 162.0 19.3 4.73   2
2021 09 15 23  00 01 44.903   -19 18 17.95  .02236 1.0268 162.2 19.3 5.05   1
2021 09 16 00  00 01 42.564   -19 08 54.46  .02253 1.0269 162.3 19.3 5.36   1
2021 09 16 01  00 01 40.265   -18 59 39.61  .02271 1.0271 162.5 19.4 5.68   1
2021 09 16 02  00 01 38.004   -18 50 33.20  .02289 1.0273 162.6 19.4 6.00   1
2021 09 16 03  00 01 35.781   -18 41 35.06  .02306 1.0274 162.7 19.4 6.33   1
2021 09 16 04  00 01 33.595   -18 32 44.99  .02324 1.0276 162.9 19.4 6.65   1
2021 09 16 05  00 01 31.445   -18 24 02.84  .02342 1.0278 163.0 19.4 6.98   1
2021 09 16 06  00 01 29.330   -18 15 28.41  .02359 1.0280 163.1 19.4 7.31   0
2021 09 16 07  00 01 27.249   -18 07 01.56  .02377 1.0281 163.3 19.4 7.64   0
2021 09 16 08  00 01 25.201   -17 58 42.11  .02395 1.0283 163.4 19.4 7.97   0
2021 09 16 09  00 01 23.186   -17 50 29.92  .02412 1.0285 163.5 19.5 8.31   0
2021 09 16 10  00 01 21.202   -17 42 24.83  .02430 1.0287 163.7 19.5 8.64   0
2021 09 16 11  00 01 19.249   -17 34 26.69  .02448 1.0288 163.8 19.5 8.98   0
2021 09 16 12  00 01 17.326   -17 26 35.36  .02466 1.0290 163.9 19.5 9.31   0
2021 09 16 13  00 01 15.433   -17 18 50.70  .02483 1.0292 164.0 19.5 9.65   0
2021 09 16 14  00 01 13.568   -17 11 12.57  .02501 1.0294 164.1 19.5 9.98   0
2021 09 16 15  00 01 11.732   -17 03 40.83  .02519 1.0295 164.3 19.5 10.3   0
2021 09 16 16  00 01 09.923   -16 56 15.36  .02537 1.0297 164.4 19.5 10.7   0
2021 09 16 17  00 01 08.140   -16 48 56.03  .02555 1.0299 164.5 19.6 11.0   0
2021 09 16 18  00 01 06.384   -16 41 42.72  .02573 1.0301 164.6 19.6 11.3   0
2021 09 16 19  00 01 04.653   -16 34 35.31  .02590 1.0302 164.7 19.6 11.7   0
2021 09 16 20  00 01 02.948   -16 27 33.68  .02608 1.0304 164.8 19.6 12.0   0
2021 09 16 21  00 01 01.267   -16 20 37.72  .02626 1.0306 164.9 19.6 12.3   0
2021 09 16 22  00 00 59.609   -16 13 47.31  .02644 1.0307 165.0 19.6 12.7 179
2021 09 16 23  00 00 57.975   -16 07 02.36  .02662 1.0309 165.1 19.6 13.0 179
2021 09 17 00  00 00 56.364   -16 00 22.74  .02680 1.0311 165.2 19.6 13.3 179
2021 09 17 01  00 00 54.775   -15 53 48.37  .02698 1.0313 165.4 19.6 13.7 179
2021 09 17 02  00 00 53.208   -15 47 19.13  .02716 1.0314 165.5 19.7 14.0 179
2021 09 17 03  00 00 51.663   -15 40 54.94  .02734 1.0316 165.6 19.7 14.3 179
2021 09 17 04  00 00 50.138   -15 34 35.69  .02752 1.0318 165.7 19.7 14.7 179
2021 09 17 05  00 00 48.634   -15 28 21.29  .02770 1.0320 165.7 19.7 15.0 179
2021 09 17 06  00 00 47.150   -15 22 11.66  .02788 1.0321 165.8 19.7 15.3 179
2021 09 17 07  00 00 45.686   -15 16 06.70  .02806 1.0323 165.9 19.7 15.6 179
2021 09 17 08  00 00 44.240   -15 10 06.33  .02824 1.0325 166.0 19.7 16.0 179
2021 09 17 09  00 00 42.814   -15 04 10.46  .02842 1.0327 166.1 19.7 16.3 179
2021 09 17 10  00 00 41.406   -14 58 19.01  .02860 1.0328 166.2 19.7 16.6 179